Hourly Data Report for October 23, 2016

All times are specified in Local Standard Time (LST). Add 1 hour to adjust for Daylight Saving Time where and when it is observed.

PANGNIRTUNG
NUNAVUT

66°08'36.300" N
65°42'40.500" W
22.60 m
2403049
71826
WXP

Download Data

Hourly Data (October 2016)
Hourly Data Report for October 23, 2016
Temp Definition
°C
Dew Point Temp Definition
°C
Rel Hum Definition
%
Wind Dir Definition
10's deg

Wind Spd Definition
km/h
Visibility Definition
km
Stn Press Definition
kPa
Hmdx Definition


Wind Chill Definition


Weather Definition


TIME
00:00 -8.5 -15.0 59 11 11   102.36   -14 LegendNANA
01:00 -8.4 -14.6 61 12 5   102.43   -11 LegendNANA
02:00 -8.7 -13.0 71 24 6   102.48   -12 LegendNANA
03:00 -8.5 -13.5 67 22 7   102.51   -12 LegendNANA
04:00 -9.0 -12.8 74 21 3   102.55   -11 LegendNANA
05:00 -9.2 -13.6 70 23 5   102.54   -12 LegendNANA
06:00 -8.4 -13.0 70 11 6   102.55   -12 LegendNANA
07:00 -9.3 -13.1 74 23 7   102.55   -13 LegendNANA
08:00 -9.7 -13.5 73 23 4   102.56   -12 LegendNANA
09:00 -9.0 -14.7 63 13 8   102.58   -13 LegendNANA
10:00 -9.4 -14.9 64 12 11   102.60   -15 LegendNANA
11:00 -10.4 -15.6 65 12 10   102.59   -16 LegendNANA
12:00 -9.0 -15.0 62 12 4   102.58   -11 LegendNANA
13:00 -9.8 -15.6 62 17 4   102.60   -12 LegendNANA
14:00 -9.2 -15.8 59 14 11   102.55   -15 LegendNANA
15:00 -9.7 -14.9 66 23 5   102.59   -13 LegendNANA
16:00 -9.5 -15.8 60 13 9   102.57   -14 LegendNANA
17:00 -9.9 -15.5 63 13 9   102.54   -15 LegendNANA
18:00 -10.8 -16.9 61 11 21   102.51   -19 LegendNANA
19:00 -10.0 -16.5 59 12 8   102.53   -14 LegendNANA
20:00 -11.2 -17.2 61 11 23   102.46   -20 LegendNANA
21:00 -9.5 -16.0 59 20 7   102.44   -13 LegendNANA
22:00 -10.2 -17.5 55 13 13   102.37   -16 LegendNANA
23:00 -9.9 -17.1 56 12 9   102.27   -15 LegendNANA

Notes on Data Quality.

Legend

  • E = Estimated
  • M = Missing
  • NA = Not Available
  • ‡ = Partner data that is not subject to review by the National Climate Archives
Date modified: